When you browse on this site, cookies collect data to enhance your experience and personalize the content and advertising you see.
Visit our Privacy Policy to learn more. By continuing to use the site, you agree to this use of cookies and data.
  • In Spain
  • List of Countries
  • For 7 days
  • Water Temperature
  • Satellite Maps
  • Weather Map
  • Weather Widgets
  • user-avatar
    Login

    Hourly Weather Korçe

    Today, 20 January, Sunday

    Time Temperature Precipitation Wind Pressure Humidity
    00:00 +1°C° 0.1 mm 2 mps 663 mmHg 91%
    01:00 0°C° 0 mm 3 mps 663 mmHg 91%
    02:00 0°C° 0 mm 3 mps 663 mmHg 91%
    03:00 0°C° 0 mm 3 mps 663 mmHg 91%
    04:00 -1°C° 0 mm 2 mps 662 mmHg 92%
    05:00 -1°C° 0 mm 2 mps 662 mmHg 91%
    06:00 -1°C° 0 mm 2 mps 662 mmHg 91%
    07:00 -1°C° 0 mm 2 mps 662 mmHg 91%
    08:00 +1°C° 0 mm 2 mps 663 mmHg 89%
    09:00 +2°C° 0 mm 2 mps 663 mmHg 88%
    10:00 +3°C° 0 mm 2 mps 664 mmHg 86%
    11:00 +4°C° 0 mm 2 mps 664 mmHg 85%
    12:00 +4°C° 0 mm 2 mps 664 mmHg 84%
    13:00 +5°C° 0 mm 2 mps 663 mmHg 82%
    14:00 +5°C° 0.1 mm 1 mps 663 mmHg 84%
    15:00 +5°C° 0.1 mm 1 mps 663 mmHg 85%
    16:00 +5°C° 0.1 mm 1 mps 663 mmHg 87%
    17:00 +4°C° 0 mm 1 mps 663 mmHg 88%
    18:00 +3°C° 0 mm 1 mps 663 mmHg 89%
    19:00 +2°C° 0 mm 1 mps 662 mmHg 90%
    20:00 +2°C° 0 mm 1 mps 662 mmHg 90%
    21:00 +1°C° 0 mm 1 mps 662 mmHg 89%
    22:00 +1°C° 0 mm 1 mps 663 mmHg 88%
    23:00 +1°C° 0 mm 1 mps 663 mmHg 87%

    Tomorrow, 21 January, Monday

    Time Temperature Precipitation Wind Pressure Humidity
    00:00 0°C° 0 mm 1 mps 663 mmHg 86%
    01:00 0°C° 0 mm 1 mps 662 mmHg 85%
    02:00 0°C° 0 mm 1 mps 662 mmHg 83%
    03:00 0°C° 0 mm 1 mps 662 mmHg 81%
    04:00 0°C° 0 mm 1 mps 662 mmHg 79%
    05:00 0°C° 0 mm 1 mps 662 mmHg 78%
    06:00 0°C° 0 mm 1 mps 662 mmHg 77%
    07:00 0°C° 0 mm 1 mps 663 mmHg 75%
    08:00 +2°C° 0 mm 1 mps 663 mmHg 74%
    09:00 +3°C° 0 mm 1 mps 664 mmHg 72%
    10:00 +5°C° 0 mm 1 mps 665 mmHg 70%
    11:00 +6°C° 0 mm 1 mps 664 mmHg 69%
    12:00 +6°C° 0 mm 1 mps 664 mmHg 69%
    13:00 +7°C° 0 mm 1 mps 664 mmHg 68%
    14:00 +6°C° 0 mm 1 mps 664 mmHg 71%
    15:00 +5°C° 0 mm 1 mps 664 mmHg 74%
    16:00 +5°C° 0 mm 1 mps 664 mmHg 77%
    17:00 +4°C° 0 mm 1 mps 664 mmHg 80%
    18:00 +2°C° 0 mm 2 mps 664 mmHg 83%
    19:00 +2°C° 0 mm 2 mps 664 mmHg 86%
    20:00 +1°C° 0 mm 2 mps 664 mmHg 86%
    21:00 +1°C° 0 mm 2 mps 664 mmHg 86%
    22:00 +1°C° 0 mm 2 mps 664 mmHg 87%
    23:00 +1°C° 0 mm 2 mps 664 mmHg 87%

    Day after tomorrow, 22 January, Tuesday

    Time Temperature Precipitation Wind Pressure Humidity
    00:00 -1°C° 0 mm 2 mps 663 mmHg 87%
    01:00 -1°C° 0 mm 2 mps 663 mmHg 87%
    02:00 -1°C° 0 mm 2 mps 663 mmHg 87%
    03:00 -1°C° 0 mm 2 mps 662 mmHg 87%
    04:00 -1°C° 0 mm 2 mps 662 mmHg 87%
    05:00 -1°C° 0.1 mm 2 mps 662 mmHg 87%
    06:00 -1°C° 0.1 mm 2 mps 662 mmHg 87%
    07:00 -1°C° 0.1 mm 3 mps 661 mmHg 87%
    08:00 0°C° 0.1 mm 3 mps 662 mmHg 86%
    09:00 +1°C° 0.1 mm 3 mps 662 mmHg 85%
    10:00 +2°C° 0.1 mm 3 mps 662 mmHg 83%
    11:00 +2°C° 0.5 mm 3 mps 661 mmHg 85%
    12:00 +2°C° 0.5 mm 3 mps 660 mmHg 87%
    13:00 +2°C° 0.5 mm 3 mps 660 mmHg 89%
    14:00 +2°C° 0.8 mm 3 mps 659 mmHg 90%
    15:00 +1°C° 0.8 mm 3 mps 658 mmHg 91%
    16:00 +1°C° 0.8 mm 3 mps 658 mmHg 92%
    17:00 +1°C° 1 mm 3 mps 658 mmHg 91%
    18:00 +1°C° 1 mm 3 mps 657 mmHg 91%
    19:00 +1°C° 1 mm 3 mps 657 mmHg 91%
    20:00 +1°C° 0.3 mm 3 mps 657 mmHg 91%
    21:00 +1°C° 0.3 mm 3 mps 656 mmHg 91%
    22:00 +1°C° 0.3 mm 3 mps 656 mmHg 90%
    23:00 +1°C° 0.4 mm 3 mps 656 mmHg 90%

    23 January, Wednesday

    Time Temperature Precipitation Wind Pressure Humidity
    00:00 +1°C° 0.4 mm 3 mps 655 mmHg 90%
    01:00 +1°C° 0.4 mm 3 mps 655 mmHg 90%
    02:00 0°C° 1.7 mm 4 mps 654 mmHg 92%
    03:00 0°C° 1.7 mm 4 mps 654 mmHg 94%
    04:00 0°C° 1.7 mm 4 mps 654 mmHg 96%
    05:00 0°C° 1.1 mm 5 mps 654 mmHg 95%
    06:00 0°C° 1.1 mm 5 mps 654 mmHg 95%
    07:00 0°C° 1.1 mm 5 mps 654 mmHg 95%
    08:00 +1°C° 0.5 mm 5 mps 654 mmHg 94%
    09:00 +1°C° 0.5 mm 5 mps 655 mmHg 92%
    10:00 +1°C° 0.5 mm 6 mps 655 mmHg 91%
    11:00 +1°C° 0.3 mm 5 mps 655 mmHg 90%
    12:00 +1°C° 0.3 mm 5 mps 655 mmHg 89%
    13:00 +1°C° 0.3 mm 4 mps 654 mmHg 88%
    14:00 +1°C° 0.1 mm 4 mps 654 mmHg 87%
    15:00 +1°C° 0.1 mm 3 mps 654 mmHg 87%
    16:00 +1°C° 0.1 mm 3 mps 654 mmHg 87%
    17:00 +1°C° 0 mm 2 mps 654 mmHg 88%
    18:00 -1°C° 0 mm 2 mps 654 mmHg 90%
    19:00 -2°C° 0 mm 2 mps 654 mmHg 91%
    20:00 -1°C° 0 mm 2 mps 654 mmHg 90%
    21:00 -1°C° 0 mm 2 mps 654 mmHg 89%
    22:00 -1°C° 0 mm 2 mps 653 mmHg 89%
    23:00 -1°C° 0.3 mm 2 mps 653 mmHg 89%

    24 January, Thursday

    Time Temperature Precipitation Wind Pressure Humidity
    00:00 +1°C° 0.3 mm 2 mps 652 mmHg 89%
    01:00 +1°C° 0.3 mm 2 mps 652 mmHg 89%
    02:00 +1°C° 0.7 mm 2 mps 651 mmHg 90%
    03:00 +1°C° 0.7 mm 2 mps 651 mmHg 91%
    04:00 +1°C° 0.7 mm 2 mps 650 mmHg 91%
    05:00 +1°C° 3.2 mm 2 mps 650 mmHg 92%
    06:00 +1°C° 3.2 mm 2 mps 649 mmHg 92%
    07:00 +1°C° 3.2 mm 2 mps 649 mmHg 93%
    08:00 +1°C° 2.2 mm 2 mps 649 mmHg 93%
    09:00 +1°C° 2.2 mm 2 mps 649 mmHg 94%
    10:00 +1°C° 2.2 mm 2 mps 648 mmHg 94%
    11:00 +2°C° 0.7 mm 2 mps 648 mmHg 93%
    12:00 +2°C° 0.7 mm 2 mps 648 mmHg 91%
    13:00 +3°C° 0.7 mm 2 mps 648 mmHg 90%
    14:00 +3°C° 0.2 mm 2 mps 647 mmHg 90%
    15:00 +2°C° 0.2 mm 2 mps 647 mmHg 91%
    16:00 +2°C° 0.2 mm 2 mps 647 mmHg 92%
    17:00 +1°C° 0.2 mm 2 mps 647 mmHg 93%
    18:00 +1°C° 0.2 mm 2 mps 648 mmHg 94%
    19:00 -1°C° 0.2 mm 2 mps 648 mmHg 95%
    20:00 -1°C° 0 mm 2 mps 648 mmHg 93%
    21:00 -2°C° 0 mm 2 mps 648 mmHg 92%
    22:00 -2°C° 0 mm 2 mps 648 mmHg 90%
    23:00 -2°C° 0 mm 2 mps 648 mmHg 88%

    25 January, Friday

    Time Temperature Precipitation Wind Pressure Humidity
    00:00 -1°C° 0 mm 1 mps 648 mmHg 86%
    01:00 -1°C° 0 mm 1 mps 648 mmHg 83%
    02:00 -3°C° 0 mm 2 mps 648 mmHg 83%
    03:00 -3°C° 0 mm 2 mps 649 mmHg 82%
    04:00 -3°C° 0 mm 2 mps 649 mmHg 81%
    05:00 -3°C° 0 mm 2 mps 649 mmHg 82%
    06:00 -3°C° 0 mm 2 mps 650 mmHg 83%
    07:00 -3°C° 0 mm 2 mps 650 mmHg 84%
    08:00 -2°C° 0 mm 2 mps 651 mmHg 87%
    09:00 -1°C° 0 mm 2 mps 651 mmHg 90%
    10:00 +2°C° 0 mm 2 mps 652 mmHg 92%
    11:00 +2°C° 0 mm 2 mps 652 mmHg 90%
    12:00 +2°C° 0 mm 2 mps 652 mmHg 87%
    13:00 +3°C° 0 mm 2 mps 653 mmHg 85%
    14:00 +3°C° 0 mm 1 mps 653 mmHg 86%
    15:00 +3°C° 0 mm 1 mps 653 mmHg 87%
    16:00 +3°C° 0 mm 1 mps 653 mmHg 88%
    17:00 +2°C° 0 mm 1 mps 653 mmHg 88%
    18:00 +1°C° 0 mm 1 mps 653 mmHg 89%
    19:00 0°C° 0 mm 1 mps 654 mmHg 90%
    20:00 0°C° 0 mm 1 mps 654 mmHg 90%
    21:00 0°C° 0 mm 1 mps 654 mmHg 89%
    22:00 0°C° 0 mm 1 mps 655 mmHg 89%
    23:00 0°C° 0 mm 1 mps 655 mmHg 89%
    Show more